Back to catalog

TERRA SAR X

AliveScienceSSO
NORAD 31698·PAYLOAD·🇩🇪 Germany

Launched Jun 15, 2007 from Baikonur Cosmodrome

Loading…

Next Passes (next 24 hours)

TLE

FreshSource: CelesTrak SupGP

Epoch: Sep 14, 2026, 00:01 UTC

1 31698C 07026A   26257.00118056  .00001394  00000+0  66525-4 0  2576
2 31698  97.4469 263.4493 0001616  94.3340   9.5398 15.19147389    19

Track TERRA SAR X in real time with AllMySat

Download on the App Store